Simultaneous Nadir Overpasses (SNOs) Predictions

Prediction of SNOs between METOP-B and TERRA Satellite Orbit:

Table of predicted SNOs for the next 14.0 days since TLE Epoch: 8/1/2020
Index Date (METOP-B) Time (METOP-B) Lat,Lon (METOP-B) SZA (METOP-B ) Date (TERRA) Time (TERRA) Lat,Lon (TERRA) SZA (TERRA ) Distance(km) Time Diff (sec)
1 08/02/2020 23:39:16 -81.32, 52.35 113.42 08/02/2020 23:40:28 -81.31, 52.47 113.38 2.07 72
2 08/03/2020 00:29:56 81.32,-139.94 66.64 08/03/2020 00:29:54 81.32,-139.75 66.66 3.17 2
3 08/03/2020 01:20:22 -81.36, 33.14 112.67 08/03/2020 01:19:08 -81.55, 32.85 112.62 22.00 74
4 08/05/2020 19:13:36 -81.32, 119.12 112.62 08/05/2020 19:14:43 -81.32, 119.04 112.60 1.37 67
5 08/05/2020 20:04:16 81.33, -73.18 67.44 08/05/2020 20:04:09 81.33, -73.21 67.43 0.53 7
6 08/08/2020 14:47:57 -81.32,-174.51 111.83 08/08/2020 14:48:58 -81.33,-174.40 111.78 1.94 61
7 08/08/2020 15:38:37 81.33, -6.83 68.23 08/08/2020 15:38:24 81.33, -6.68 68.24 2.51 13
8 08/11/2020 10:22:17 -81.32,-108.16 111.00 08/11/2020 10:23:13 -81.31,-108.24 110.99 1.62 56
9 08/11/2020 11:12:56 81.33, 59.91 69.10 08/11/2020 11:12:38 81.34, 59.84 69.09 1.30 18
10 08/14/2020 05:56:38 -81.32, -41.82 110.14 08/14/2020 05:57:28 -81.32, -41.70 110.11 1.93 50
